TimeCST,TemperatureF,Dew PointF,Humidity,Sea Level PressureIn,VisibilityMPH,Wind Direction,Wind SpeedMPH,Gust SpeedMPH,PrecipitationIn,Events,Conditions,WindDirDegrees,DateUTC
12:55 AM,12.9,6.1,74,30.42,10.0,WNW,5.8,-,N/A,,Clear,290,2013-01-14 06:55:00
1:55 AM,10.9,5.0,77,30.43,10.0,West,5.8,-,N/A,,Clear,280,2013-01-14 07:55:00
2:55 AM,10.9,5.0,77,30.45,10.0,West,5.8,-,N/A,,Clear,280,2013-01-14 08:55:00
3:55 AM,10.4,5.0,79,30.37,10.0,Calm,Calm,-,N/A,,Clear,0,2013-01-14 09:55:00
4:55 AM,10.0,5.0,80,30.45,10.0,Calm,Calm,-,N/A,,Clear,0,2013-01-14 10:55:00
5:55 AM,10.0,3.9,76,30.47,10.0,WSW,3.5,-,N/A,,Clear,250,2013-01-14 11:55:00
6:55 AM,9.0,3.9,80,30.48,10.0,West,4.6,-,N/A,,Clear,270,2013-01-14 12:55:00
7:55 AM,9.0,3.9,80,30.51,10.0,WSW,4.6,-,N/A,,Clear,250,2013-01-14 13:55:00
8:55 AM,12.0,6.1,77,30.53,10.0,WSW,5.8,-,N/A,,Clear,250,2013-01-14 14:55:00
9:55 AM,18.0,10.9,74,30.53,10.0,WNW,3.5,-,N/A,,Clear,290,2013-01-14 15:55:00
10:55 AM,21.9,12.9,68,30.51,10.0,West,4.6,-,N/A,,Clear,280,2013-01-14 16:55:00
11:55 AM,24.1,10.0,55,30.47,10.0,WSW,4.6,-,N/A,,Clear,240,2013-01-14 17:55:00
12:55 PM,26.1,9.0,49,30.43,10.0,NW,5.8,-,N/A,,Clear,310,2013-01-14 18:55:00
1:55 PM,27.0,9.0,47,30.41,10.0,WSW,5.8,-,N/A,,Clear,250,2013-01-14 19:55:00
2:55 PM,28.9,9.0,43,30.40,10.0,Variable,3.5,-,N/A,,Clear,0,2013-01-14 20:55:00
3:55 PM,28.9,8.1,41,30.40,10.0,Calm,Calm,-,N/A,,Clear,0,2013-01-14 21:55:00
4:55 PM,28.0,8.1,43,30.40,10.0,Calm,Calm,-,N/A,,Clear,0,2013-01-14 22:55:00
5:55 PM,26.1,7.0,44,30.41,10.0,Calm,Calm,-,N/A,,Clear,0,2013-01-14 23:55:00
6:55 PM,21.9,9.0,58,30.43,10.0,Calm,Calm,-,N/A,,Clear,0,2013-01-15 00:55:00
7:55 PM,23.0,10.0,58,30.43,10.0,Calm,Calm,-,N/A,,Clear,0,2013-01-15 01:55:00
8:55 PM,21.0,10.0,63,30.43,10.0,South,5.8,-,N/A,,Clear,180,2013-01-15 02:55:00
9:55 PM,19.9,10.0,65,30.41,10.0,South,4.6,-,N/A,,Clear,170,2013-01-15 03:55:00
10:55 PM,19.9,9.0,62,30.41,10.0,North,-9999.0,-,N/A,,Clear,0,2013-01-15 04:55:00
11:55 PM,21.0,10.9,65,30.40,10.0,South,5.8,-,N/A,,Clear,180,2013-01-15 05:55:00